Regional Weather Roundup
Issued by NWS Sioux Falls, SD

Home | Current Version | Previous Version | Graphics & Text | Print | Product List | Glossary Off
Versions: 1 2 3 4 5 6 7 8 9 10 11 12 13 14 15 16 17 18 19 20 21 22 23 24 25 26 27 28 29 30 31 32 33 34 35 36 37 38 39 40 41 42 43 44 45 46 47 48 49 50

000
ASUS43 KFSD 050502
RWRFSD

WEATHER ROUNDUP FOR SE SOUTH DAKOTA/SW MINNESOTA/NW IOWA
NATIONAL WEATHER SERVICE SIOUX FALLS SD
1200 AM CDT SUN JUL 05 2015

NOTE: "FAIR" INDICATES FEW OR NO CLOUDS BELOW 12,000 FEET WITH NO
SIGNIFICANT WEATHER AND OR OBSTRUCTIONS TO VISIBILITY.


SDZ038>040-050-052>070-050600-
SOUTHEAST SOUTH DAKOTA

CITY           SKY/WX    TMP DP  RH WIND       PRES   REMARKS
BROOKINGS      PTCLDY    70  63  78 SE12      29.89F
CHAMBERLAIN    CLOUDY    73  69  87 S10       29.77F
HURON          CLOUDY    73  66  78 S15G24    29.78F
MADISON        FAIR      70  68  94 S14       29.89F
MITCHELL       CLOUDY    73  66  78 S16G24    29.82F
SIOUX FALLS    PTCLDY    72  63  73 S12       29.90S
WINNER         FAIR      81  64  56 S20       29.79S
YANKTON        MOCLDY    72  64  78 SE7       29.87S
$$

MNZ071-072-080-081-089-090-097-098-050600-
SOUTHWEST MINNESOTA

CITY           SKY/WX    TMP DP  RH WIND       PRES   REMARKS
FAIRMONT       CLEAR     63  55  77 S7        29.96R
JACKSON        CLEAR     64  61  88 S7        29.96S
LUVERNE        CLEAR     70  63  78 S6        29.92F
MARSHALL       PTCLDY    68  61  77 S8        29.88
MONTEVIDEO     PTCLDY    70  64  83 S6        29.88F
PIPESTONE      PTCLDY    70  63  78 S8        29.91F
REDWOOD FALLS  CLEAR     67  62  84 S9        29.91S
TRACY          CLEAR     71  63  75 S9        29.91F
WINDOM         CLEAR     66  61  82 CALM      29.95S
WORTHINGTON    CLEAR     66  57  72 S13       29.94S
$$

IAZ001>003-012>014-020>022-031-032-NEZ013-014-SDZ071-050600-
NORTHWEST IOWA

CITY           SKY/WX    TMP DP  RH WIND       PRES   REMARKS
DENISON        MOCLDY    66  61  82 SE8       29.95S
ESTHERVILLE    CLEAR     61  58  90 S7        29.96S
SIOUX CITY     CLEAR     70  62  76 SE9       29.93R
SPENCER        CLEAR     64  58  80 S7        29.96R
$$

ABBREVIATIONS USED IN REMARKS
   TC - TEMPERATURE IN CELSIUS
  WCI - WIND CHILL INDEX
   HX - HEAT INDEX
  VSB - VISIBILITY




USA.gov is the U.S. government's official web portal to all federal, state and local government web resources and services.